Location: Tr�vern
(48.0333°N, 4.6000°W)
Time: 19:13:42
(UTC+00:00)

CSL-04 DEB - Pass Details

Date: 14 July 2020
Orbit: 545 x 629 km, 98.7° (Epoch: 12 August)

Event Time Altitude Azimuth Distance (km) Brightness Sun altitude
Rises 03:25:46 0° 165° (SSE) 2,819 7.6 -9.4°
Reaches altitude 10° 03:27:56 10° 166° (SSE) 1,908 6.8 -9.1°
Maximum altitude 03:32:04 85° 253° (WSW) 586 4.4 -8.7°
Drops below altitude 10° 03:36:09 10° 344° (NNW) 1,875 7.5 -8.2°
Sets 03:38:16 0° 345° (NNW) 2,765 8.4 -7.9°
